• In Lithuania
  • List of Countries
  • For 7 days
  • Water Temperature
  • Satellite Maps
  • Weather Map
  • Weather Widgets
  • user-avatar
    Login

    Hourly Weather Mayakovskogo

    Today, 18 July, Wednesday

    Time Temperature Precipitation Wind Pressure Humidity
    00:00 +23°C° 0 mm 5 mps 751 mmHg 72%
    01:00 +22°C° 0 mm 5 mps 751 mmHg 75%
    02:00 +22°C° 0 mm 5 mps 751 mmHg 77%
    03:00 +22°C° 0 mm 5 mps 751 mmHg 80%
    04:00 +22°C° 0 mm 5 mps 751 mmHg 80%
    05:00 +22°C° 0 mm 5 mps 751 mmHg 80%
    06:00 +22°C° 0 mm 5 mps 751 mmHg 80%
    07:00 +24°C° 0 mm 6 mps 751 mmHg 71%
    08:00 +26°C° 0 mm 6 mps 751 mmHg 63%
    09:00 +28°C° 0 mm 7 mps 751 mmHg 54%
    10:00 +29°C° 0 mm 7 mps 751 mmHg 51%
    11:00 +30°C° 0 mm 7 mps 751 mmHg 48%
    12:00 +30°C° 0 mm 7 mps 751 mmHg 45%
    13:00 +32°C° 0 mm 7 mps 751 mmHg 44%
    14:00 +32°C° 0 mm 7 mps 751 mmHg 43%
    15:00 +32°C° 0 mm 7 mps 750 mmHg 41%
    16:00 +32°C° 0 mm 6 mps 751 mmHg 42%
    17:00 +32°C° 0 mm 6 mps 751 mmHg 43%
    18:00 +30°C° 0 mm 5 mps 751 mmHg 43%
    19:00 +29°C° 0 mm 4 mps 751 mmHg 47%
    20:00 +27°C° 0 mm 3 mps 751 mmHg 51%
    21:00 +26°C° 0 mm 1 mps 751 mmHg 55%
    22:00 +25°C° 0.1 mm 2 mps 751 mmHg 57%
    23:00 +25°C° 0.1 mm 2 mps 751 mmHg 59%

    Tomorrow, 19 July, Thursday

    Time Temperature Precipitation Wind Pressure Humidity
    00:00 +24°C° 0.1 mm 2 mps 751 mmHg 61%
    01:00 +24°C° 0.2 mm 2 mps 751 mmHg 64%
    02:00 +24°C° 0.2 mm 2 mps 751 mmHg 66%
    03:00 +23°C° 0.2 mm 1 mps 751 mmHg 69%
    04:00 +23°C° 0.5 mm 2 mps 751 mmHg 72%
    05:00 +23°C° 0.5 mm 2 mps 751 mmHg 75%
    06:00 +22°C° 0.5 mm 3 mps 751 mmHg 78%
    07:00 +25°C° 0.3 mm 3 mps 752 mmHg 73%
    08:00 +26°C° 0.3 mm 3 mps 752 mmHg 67%
    09:00 +28°C° 0.3 mm 3 mps 752 mmHg 61%
    10:00 +29°C° 0.6 mm 3 mps 752 mmHg 56%
    11:00 +30°C° 0.6 mm 4 mps 752 mmHg 50%
    12:00 +32°C° 0.6 mm 4 mps 752 mmHg 45%
    13:00 +32°C° 0 mm 4 mps 752 mmHg 46%
    14:00 +32°C° 0 mm 4 mps 752 mmHg 46%
    15:00 +32°C° 0 mm 4 mps 752 mmHg 46%
    16:00 +31°C° 0 mm 3 mps 752 mmHg 47%
    17:00 +31°C° 0 mm 3 mps 752 mmHg 48%
    18:00 +31°C° 0 mm 3 mps 752 mmHg 49%
    19:00 +29°C° 0 mm 2 mps 752 mmHg 53%
    20:00 +28°C° 0 mm 2 mps 752 mmHg 57%
    21:00 +26°C° 0 mm 1 mps 753 mmHg 61%
    22:00 +26°C° 0 mm 1 mps 753 mmHg 63%
    23:00 +25°C° 0 mm 1 mps 753 mmHg 65%

    Day after tomorrow, 20 July, Friday

    Time Temperature Precipitation Wind Pressure Humidity
    00:00 +25°C° 0 mm 1 mps 753 mmHg 67%
    01:00 +24°C° 0 mm 1 mps 753 mmHg 69%
    02:00 +22°C° 0 mm 0 mps 753 mmHg 70%
    03:00 +22°C° 0 mm 0 mps 753 mmHg 72%
    04:00 +24°C° 0 mm 1 mps 753 mmHg 72%
    05:00 +24°C° 0 mm 1 mps 753 mmHg 73%
    06:00 +24°C° 0 mm 1 mps 753 mmHg 73%
    07:00 +26°C° 0 mm 1 mps 753 mmHg 67%
    08:00 +28°C° 0 mm 2 mps 753 mmHg 61%
    09:00 +29°C° 0 mm 2 mps 753 mmHg 55%
    10:00 +30°C° 0 mm 3 mps 753 mmHg 51%
    11:00 +31°C° 0 mm 3 mps 753 mmHg 46%
    12:00 +34°C° 0 mm 3 mps 752 mmHg 42%
    13:00 +34°C° 0 mm 3 mps 752 mmHg 40%
    14:00 +35°C° 0 mm 3 mps 752 mmHg 37%
    15:00 +35°C° 0 mm 3 mps 752 mmHg 35%
    16:00 +35°C° 0.1 mm 3 mps 752 mmHg 37%
    17:00 +34°C° 0.1 mm 2 mps 752 mmHg 39%
    18:00 +34°C° 0.1 mm 2 mps 752 mmHg 41%
    19:00 +31°C° 0.5 mm 2 mps 752 mmHg 48%
    20:00 +29°C° 0.5 mm 2 mps 752 mmHg 54%
    21:00 +27°C° 0.5 mm 2 mps 752 mmHg 61%
    22:00 +27°C° 0.4 mm 2 mps 752 mmHg 65%
    23:00 +26°C° 0.4 mm 2 mps 752 mmHg 68%

    21 July, Saturday

    Time Temperature Precipitation Wind Pressure Humidity
    00:00 +25°C° 0.4 mm 2 mps 752 mmHg 71%
    01:00 +25°C° 0.4 mm 2 mps 752 mmHg 74%
    02:00 +25°C° 0.4 mm 1 mps 752 mmHg 76%
    03:00 +24°C° 0.4 mm 1 mps 752 mmHg 78%
    04:00 +24°C° 1.2 mm 1 mps 752 mmHg 80%
    05:00 +24°C° 1.2 mm 1 mps 753 mmHg 81%
    06:00 +24°C° 1.2 mm 1 mps 753 mmHg 83%
    07:00 +26°C° 0.1 mm 2 mps 753 mmHg 76%
    08:00 +27°C° 0.1 mm 2 mps 753 mmHg 70%
    09:00 +29°C° 0.1 mm 3 mps 753 mmHg 64%
    10:00 +30°C° 0 mm 3 mps 753 mmHg 58%
    11:00 +31°C° 0 mm 3 mps 753 mmHg 51%
    12:00 +34°C° 0 mm 3 mps 753 mmHg 45%
    13:00 +34°C° 0 mm 3 mps 753 mmHg 43%
    14:00 +34°C° 0 mm 3 mps 752 mmHg 42%
    15:00 +35°C° 0 mm 3 mps 752 mmHg 40%
    16:00 +34°C° 0 mm 3 mps 752 mmHg 42%
    17:00 +34°C° 0 mm 3 mps 752 mmHg 44%
    18:00 +33°C° 0 mm 3 mps 752 mmHg 46%
    19:00 +31°C° 0.1 mm 3 mps 753 mmHg 51%
    20:00 +29°C° 0.1 mm 3 mps 753 mmHg 57%
    21:00 +27°C° 0.1 mm 2 mps 753 mmHg 62%
    22:00 +27°C° 0.3 mm 2 mps 753 mmHg 66%
    23:00 +26°C° 0.3 mm 2 mps 753 mmHg 69%

    22 July, Sunday

    Time Temperature Precipitation Wind Pressure Humidity
    00:00 +25°C° 0.3 mm 2 mps 753 mmHg 72%
    01:00 +25°C° 0 mm 2 mps 753 mmHg 74%
    02:00 +24°C° 0 mm 2 mps 753 mmHg 76%
    03:00 +24°C° 0 mm 2 mps 753 mmHg 78%
    04:00 +24°C° 0 mm 2 mps 753 mmHg 79%
    05:00 +24°C° 0 mm 2 mps 753 mmHg 79%
    06:00 +24°C° 0 mm 2 mps 753 mmHg 79%
    07:00 +26°C° 0.2 mm 2 mps 753 mmHg 73%
    08:00 +28°C° 0.2 mm 3 mps 753 mmHg 67%
    09:00 +29°C° 0.2 mm 3 mps 753 mmHg 61%
    10:00 +30°C° 0.2 mm 3 mps 753 mmHg 56%
    11:00 +33°C° 0.2 mm 4 mps 753 mmHg 51%
    12:00 +34°C° 0.2 mm 4 mps 753 mmHg 45%
    13:00 +34°C° 0 mm 4 mps 752 mmHg 45%
    14:00 +34°C° 0 mm 4 mps 752 mmHg 44%
    15:00 +34°C° 0 mm 4 mps 752 mmHg 43%
    16:00 +34°C° 0 mm 4 mps 752 mmHg 44%
    17:00 +34°C° 0 mm 4 mps 752 mmHg 45%
    18:00 +33°C° 0 mm 4 mps 752 mmHg 46%
    19:00 +31°C° 0 mm 3 mps 752 mmHg 51%
    20:00 +29°C° 0 mm 3 mps 753 mmHg 56%
    21:00 +27°C° 0 mm 3 mps 753 mmHg 62%
    22:00 +27°C° 0 mm 3 mps 753 mmHg 65%
    23:00 +26°C° 0 mm 2 mps 753 mmHg 67%

    23 July, Monday

    Time Temperature Precipitation Wind Pressure Humidity
    00:00 +26°C° 0 mm 2 mps 753 mmHg 70%
    01:00 +25°C° 0 mm 2 mps 753 mmHg 71%
    02:00 +25°C° 0 mm 2 mps 753 mmHg 73%
    03:00 +25°C° 0 mm 2 mps 753 mmHg 74%
    04:00 +25°C° 0 mm 1 mps 753 mmHg 75%
    05:00 +25°C° 0 mm 1 mps 753 mmHg 75%
    06:00 +25°C° 0 mm 1 mps 753 mmHg 75%
    07:00 +27°C° 0 mm 1 mps 753 mmHg 68%
    08:00 +29°C° 0 mm 1 mps 753 mmHg 61%
    09:00 +30°C° 0 mm 1 mps 753 mmHg 54%
    10:00 +32°C° 0 mm 1 mps 753 mmHg 49%
    11:00 +34°C° 0 mm 2 mps 753 mmHg 44%
    12:00 +35°C° 0 mm 2 mps 753 mmHg 39%
    13:00 +35°C° 0 mm 2 mps 753 mmHg 37%
    14:00 +36°C° 0 mm 2 mps 752 mmHg 35%
    15:00 +36°C° 0 mm 2 mps 752 mmHg 33%
    16:00 +36°C° 0 mm 2 mps 752 mmHg 34%
    17:00 +35°C° 0 mm 1 mps 752 mmHg 35%
    18:00 +34°C° 0 mm 1 mps 752 mmHg 36%
    19:00 +33°C° 0 mm 1 mps 753 mmHg 39%
    20:00 +32°C° 0 mm 2 mps 753 mmHg 42%
    21:00 +30°C° 0 mm 2 mps 753 mmHg 45%
    22:00 +30°C° 0 mm 2 mps 753 mmHg 46%
    23:00 +30°C° 0 mm 2 mps 753 mmHg 48%
    Show more